Location: ????? ???????
(25.7275°N, 32.5929°E)
Time: 11:06:44
(UTC+00:00)

Cosmos 2366 rocket - Pass Details

Date: 02 March 2021
Orbit: 954 x 998 km, 82.9° (Epoch: 15 April)

Event Time Altitude Azimuth Distance (km) Brightness Sun altitude
Rises 17:49:21 0° 190° (S) 3,660 7.1 -27.2°
Reaches altitude 10° 17:51:51 10° 193° (SSW) 2,721 6.4 -27.8°
Maximum altitude 17:58:04 69° 276° (W) 1,051 4.2 -29.2°
Drops below altitude 10° 18:04:22 10° 359° (N) 2,758 6.4 -30.6°
Sets 18:06:56 0° 2° (N) 3,712 7.1 -31.1°
